Location: Callanans Corners
(42.5326°N, 73.8846°W)
Time: 13:49:13
(UTC+00:00)

SL-08 RB Rocket - Pass Details

Date: 06 October 2022
Orbit: 644 x 683 km, 97.7° (Epoch: 28 November)

Event Time Altitude Azimuth Distance (km) Brightness Sun altitude
Rises 22:53:25 0° 171° (S) 2,998 7.0 -5.5°
Reaches altitude 10° 22:55:38 10° 174° (S) 2,095 6.2 -5.9°
Maximum altitude 23:00:13 71° 258° (WSW) 717 4.1 -6.7°
Drops below altitude 10° 23:04:52 10° 343° (NNW) 2,130 6.5 -7.6°
Sets 23:07:08 0° 346° (NNW) 3,053 7.3 -8.0°
